Regional Weather Roundup
Issued by NWS

Home | Current Version | Previous Version | Text Only | Print | Product List | Glossary On
Versions: 1 2 3 4 5 6 7 8 9 10 11 12 13 14 15 16 17 18 19 20 21 22 23 24 25 26 27 28 29 30 31 32 33 34 35 36 37 38 39 40 41 42 43 44 45 46 47 48 49 50
000
ASCA44 KEWX 251620
RWRMX

LATIN AMERICA AND CARIBBEAN REGIONAL WEATHER ROUNDUP
NATIONAL WEATHER SERVICE AUSTIN/SAN ANTONIO TX
1100 AM CDT TUE APR 25 2017

NOTE: "FAIR" INDICATED FEW OR NO CLOUDS BELOW 12,000 FEET WITH NO
SIGNIFICANT WEATHER AND/OR OBSTRUCTIONS TO VISIBILITY.

BAJA CALIFORNIA

CITY           SKY/WX    TMP DP  RH WIND       PRES   REMARKS
LORETO         MOSUNNY   84  63  48 W12       29.80R
LA PAZ         MOSUNNY   68  52  56 S10       29.93R
MEXICALI       CLOUDY    72  43  35 W16       29.76R
S.J. DEL CABO  MOSUNNY   82  37  20 CALM      29.89R
TIJUANA        PTSUNNY   63  50  63 S5        29.95R

NORTHWESTERN MEXICO

CITY           SKY/WX    TMP DP  RH WIND       PRES   REMARKS
CULIACAN       SUNNY     81  66  61 CALM      29.87R
DURANGO        PTSUNNY   68  18  14 S13       30.15R
GUAYMAS        MOSUNNY   77  66  69 SW6       29.78R
HERMOSILLO     PTSUNNY   75  57  53 SW8       29.83S
CD. JUAREZ     PTSUNNY   75  30  19 W14G28    29.67R
LOS MOCHIS     SUNNY     77  66  69 SE7       29.88R
OBREGON        MOSUNNY   77  63  61 SE14      29.82S

NORTHEASTERN MEXICO

CITY           SKY/WX    TMP DP  RH WIND       PRES   REMARKS
CHIHUAHUA      PTSUNNY   79  21  11 S15       29.86F
MATAMOROS      PTSUNNY   84  72  65 S20       29.67F
MONCLOVA       SUNNY     91  46  21 SW12      29.70
MONTERREY      SUNNY     91  52  25 CALM      29.66S
NUEVO LAREDO   SUNNY     75  66  73 SE8       29.64S
PIEDRAS NEGRAS SUNNY     77  57  50 SE7       29.63S
REYNOSA        SUNNY     81  66  61 S9G21     29.64F
SALTILLO       SUNNY     81  54  39 S7        29.97F
TORREON        SUNNY     82  34  17 CALM      29.92S
CD. VICTORIA   PTSUNNY   79  64  61 S14       29.69R

WESTERN MEXICO

CITY           SKY/WX    TMP DP  RH WIND       PRES   REMARKS
AGUASCALIENTES PTSUNNY   72  39  30 CALM      30.20R
COLIMA         MOSUNNY   81  57  44 CALM      30.01S
DEL BAJIO      MOSUNNY   70  43  37 CALM      30.24R
GUADALAJARA    PTSUNNY   75  43  31 CALM      30.15S
MANZANILLO     MOSUNNY   82  72  69 S7        29.89R
MAZATLAN       PTSUNNY   79  68  69 S3        29.90R
P. VALLARTA    PTSUNNY   81  68  65 CALM      29.90R
URUAPAN        CLOUDY    72  45  37 CALM      30.16S
ZACATECAS      PTSUNNY   66  28  24 W12       30.20S

CENTRAL MEXICO

CITY           SKY/WX    TMP DP  RH WIND       PRES   REMARKS
CUERNAVACA     MOSUNNY   77  52  41 CALM      30.09S
MEXICO CITY    MOSUNNY   70  39  32 NE5       30.26S
MORELIA        MOSUNNY   70  45  40 CALM      30.20S
POZA RICA      SUNNY     84  72  65 SE5       29.80S
PUEBLA         SUNNY     64  50  59 S3        30.27F
QUERETARO      MOSUNNY   72  43  35 W18       30.24R
S. LUIS POTOSI PTSUNNY   73  30  20 W16       30.12S
TAMPICO        PTSUNNY   82  72  69 SW5       29.73S
TOLUCA         PTSUNNY   64  41  42 NW5       30.36R

SOUTHERN MEXICO

CITY           SKY/WX    TMP DP  RH WIND       PRES   REMARKS
ACAPULCO       SUNNY     84  72  65 W7        29.90R
B. DE HUATULCO   N/A    N/A N/A N/A MISG        N/A
OAXACA         SUNNY     72  55  56 CALM      30.18F
P. ESCONDIDO     N/A     82  72  69 W12       29.97R
VERACRUZ       SUNNY     82  70  65 S7        29.78F
ZIHUATANEJO    MOSUNNY   84  70  61 SW3       29.91R

YUCATAN PENINSULA

CITY           SKY/WX    TMP DP  RH WIND       PRES   REMARKS
CAMPECHE       SUNNY     91  70  49 E12       29.79F HX  97
CANCUN         PTSUNNY   82  72  69 SE12      29.91S
CHETUMAL       MOSUNNY   84  75  74 SE9       29.87F HX  92
CD. DEL CARMEN MOSUNNY   84  70  61 SE12      29.81S
COZUMEL        MOSUNNY   86  70  58 S5        29.89S HX  90
MERIDA         MOSUNNY   86  68  54 S7        29.85F
MINATITLAN     SUNNY     84  75  74 CALM      29.78S HX  92
TAPACHULA      PTSUNNY   88  73  62 CALM      29.89R HX  96
TUX. GUTIERREZ SUNNY     84  59  42 E8        29.93F
VILLAHERMOSA   SUNNY     86  66  51 SE10      29.82F

CENTRAL AMERICA

CITY           SKY/WX    TMP DP  RH WIND       PRES   REMARKS
BELIZE CITY    MOSUNNY   88  75  66 SE5       29.86S HX  97
MANAGUA        MOSUNNY   90  72  55 E14       29.86S HX  96

CARIBBEAN

CITY           SKY/WX    TMP DP  RH WIND       PRES   REMARKS
ARUBA          MOSUNNY   91  79  66 E17       29.86S HX 107
CURACAO        MOSUNNY   88  75  66 E15       29.89S HX  97
KINGSTON       MOSUNNY   84  75  74 S9        29.89S HX  92
NASSAU         MOSUNNY   84  64  51 W9        29.91S
SAN JUAN       MOSUNNY   91  73  55 S10G20    29.96S HX 100
SANTO DOMINGO  TSTM      79  77  94 CALM      29.94F
ST. CROIX      MOSUNNY   84  79  84 SE15G22   30.00  HX  96
ST. KITTS      PTSUNNY   82  72  69 SE10      30.00S
ST. MAARTEN    PTSUNNY   82  73  74 E14       30.00S
ST. THOMAS     MOSUNNY   84  77  79 SE16G26   29.98  HX  94

$$





USA.gov is the U.S. government's official web portal to all federal, state and local government web resources and services.